Voltar ao catálogo

SL-8 R/B

AtivoPO
NORAD 24773·ROCKET BODY·🇷🇺 Russia

Lançado Apr 17, 1997 de Plesetsk Cosmodrome

Loading…

Próximas Passagens (próximas 24 horas)

TLE

AtualizadoSource: Space-Track

Época: Sep 14, 2026, 08:11 UTC

1 24773U 97017B   26257.34162721  .00000112  00000-0  10301-3 0  9997
2 24773  82.9230  30.5143 0022937 269.8972 118.6387 13.73994838474151

Acompanhe SL-8 R/B em tempo real com AllMySat

Download on the App Store